Location: Le Castellard
(44.1862°N, 6.1301°E)
Time: 18:46:50
(UTC+00:00)

NOSS 3-2 (A) - Pass Details

Date: 18 January 2020
Orbit: 810 x 1398 km, 63.4° (Epoch: 10 February)

Event Time Altitude Azimuth Distance (km) Brightness Sun altitude
Exits shadow 05:43:21 11° 321° (NW) 3,006 5.6 -14.6°
Maximum altitude 05:50:40 83° 236° (SW) 1,304 4.1 -13.4°
Drops below altitude 10° 05:59:08 10° 150° (SSE) 3,431 7.1 -11.9°
Sets 06:02:06 0° 149° (SSE) 4,430 7.7 -11.4°
